Theta_e
352 352 352 353 352 353 354 354 354 355 354 354 354 354 355 356 354 353 354 354 352 352 352 351 351 351 352 351 348 345 344 344 342 343 343 344 349 348 344 343 344 343 341 342 345 346 347 347 347 345 345 346 347 347 347 347 346 345 345 346 345 346 345 344 343 342 343 343 344 343 343 342 341 339 338 338 337 337 337 337 337 338 338 338 338
352 352 353 354 353 354 354 354 355 355 354 354 354 354 355 355 354 353 353 354 353 353 353 352 351 351 351 349 345 343 342 342 340 341 343 344 347 348 344 341 342 343 341 341 342 344 345 346 346 346 345 345 345 347 347 347 347 346 346 346 345 345 345 346 345 344 344 344 344 344 343 343 343 342 341 340 339 339 339 338 338 337 338 338 338
353 353 353 354 354 354 355 355 355 355 355 355 355 355 354 354 354 353 353 353 353 354 353 351 351 349 347 345 342 341 340 339 338 339 343 346 346 349 348 343 343 344 342 341 340 341 343 344 346 346 346 345 344 346 347 347 347 346 346 346 346 345 345 346 345 345 344 345 344 344 344 343 343 343 342 342 341 341 340 340 339 339 339 338 338
354 354 354 354 353 354 355 355 355 355 356 356 356 355 354 354 355 355 354 353 353 354 352 348 348 345 342 342 340 340 339 337 339 340 342 345 347 348 349 347 346 345 342 341 341 340 340 342 344 346 346 346 345 345 346 346 347 347 346 346 346 345 345 345 344 344 344 345 345 345 345 344 343 343 341 341 341 340 340 341 340 340 340 339 339
354 354 353 353 353 354 355 355 356 356 357 357 356 356 354 354 355 355 354 353 353 353 350 346 344 342 341 340 339 338 338 338 340 341 342 343 346 348 349 350 349 347 345 342 342 341 339 340 343 345 345 346 346 346 346 346 347 347 346 346 346 345 345 344 343 343 344 344 344 344 344 344 343 343 342 342 342 341 340 340 340 340 339 339 339
354 353 353 353 354 356 356 356 356 357 357 358 357 355 355 354 354 354 354 353 353 351 347 345 343 342 340 340 339 339 339 339 340 341 341 343 345 347 349 350 349 349 348 345 344 343 340 339 340 344 346 346 347 347 347 346 347 347 346 346 346 345 345 345 343 343 343 343 343 343 343 343 343 343 343 343 343 342 341 341 341 340 340 339 339
353 353 354 353 353 355 356 356 358 357 357 358 357 355 354 354 354 354 354 353 351 348 345 344 342 341 341 341 339 339 339 340 341 340 342 345 346 348 349 349 349 350 349 346 345 343 340 338 338 342 345 346 347 348 348 347 347 347 346 346 346 345 345 345 344 343 343 343 343 343 342 342 343 343 342 342 342 342 341 341 341 341 341 340 340
351 353 354 354 353 354 355 358 359 358 357 358 357 355 355 355 355 355 354 354 350 346 345 343 342 341 341 341 339 339 340 341 342 342 344 347 347 348 349 350 350 350 348 346 345 343 340 338 337 340 343 345 347 347 348 347 347 347 345 345 345 344 345 345 344 343 344 344 344 343 342 342 342 342 341 341 341 341 341 340 340 341 341 340 340
351 352 353 353 354 354 356 359 359 358 359 359 357 356 356 355 356 355 354 355 349 344 345 343 341 341 340 340 340 339 340 341 343 345 346 347 349 348 349 350 350 350 349 347 347 344 342 340 338 339 342 344 345 345 346 347 346 346 345 345 345 344 344 344 343 343 343 344 344 343 342 342 342 341 341 341 341 341 341 341 340 341 340 340 340
352 352 353 353 354 354 356 359 360 360 360 358 357 357 357 355 356 356 355 353 348 344 344 343 341 340 339 340 341 340 340 341 343 345 345 346 348 349 349 350 350 349 349 348 348 347 346 344 343 342 343 344 345 344 345 346 346 346 346 346 345 345 345 345 345 344 343 344 343 343 342 342 342 342 342 342 342 342 341 341 341 341 341 340 340
353 353 353 354 355 355 357 360 359 360 360 358 358 357 358 357 356 356 355 351 347 345 344 343 340 339 339 340 341 341 340 341 341 343 344 344 346 348 348 349 349 349 349 349 349 349 348 348 348 348 346 344 344 345 344 345 346 346 346 346 346 346 346 346 346 345 345 345 344 343 342 342 343 342 343 343 343 342 341 341 341 341 341 341 341
354 354 355 355 356 357 360 361 359 360 360 359 358 358 360 360 357 356 355 350 347 346 344 343 340 339 338 337 340 341 341 341 340 341 343 343 345 346 345 346 347 346 347 348 348 348 348 349 349 350 349 345 344 344 344 345 345 345 345 346 346 346 346 346 346 346 345 345 344 344 343 344 344 344 343 343 342 342 342 341 341 341 341 341 342
354 355 356 358 358 359 362 362 360 360 360 360 359 360 361 358 357 356 353 349 347 346 344 342 341 340 338 337 338 339 341 342 339 340 343 343 343 344 342 342 343 343 344 346 347 348 348 349 349 349 350 349 346 345 343 344 344 344 345 346 345 345 346 346 346 345 345 345 345 345 344 345 345 344 344 343 342 342 342 342 342 342 342 342 342
355 355 357 360 361 361 362 362 361 361 361 361 361 362 360 358 357 356 352 349 347 345 344 343 340 338 338 338 338 338 339 340 339 340 341 342 342 342 342 340 340 340 341 343 344 346 347 348 349 349 350 350 348 346 345 346 346 344 344 345 344 344 344 344 345 345 345 346 345 345 344 344 344 344 343 343 343 343 342 343 342 343 343 343 344
356 357 358 360 362 362 361 362 363 362 362 362 362 362 360 359 357 354 351 349 347 345 344 343 339 337 338 339 339 338 338 338 338 338 340 342 341 341 342 340 340 340 339 339 339 341 343 345 348 349 350 349 348 347 347 348 346 343 343 343 343 343 344 344 344 344 345 345 345 344 344 344 343 343 343 343 343 343 343 342 342 343 343 343 343
357 358 358 360 361 362 360 361 364 362 361 362 363 362 361 359 356 353 351 348 345 345 345 342 340 339 339 338 338 338 340 338 337 338 338 341 340 341 342 341 341 341 339 337 337 338 339 342 344 345 346 348 348 349 349 347 343 340 340 341 342 342 343 344 343 343 343 341 340 341 341 339 340 342 341 339 339 339 339 339 340 342 343 343 343
357 358 359 359 361 361 360 361 363 362 360 360 361 361 360 357 354 353 352 348 343 344 345 342 340 341 340 338 337 338 339 338 337 338 338 338 339 340 342 341 341 341 339 337 337 337 338 339 341 341 342 343 345 347 347 346 344 341 337 334 335 337 338 340 340 339 334 327 325 327 327 325 327 330 329 326 325 327 327 327 330 332 334 335 334
358 359 359 359 360 361 360 360 361 361 360 359 359 361 360 356 354 353 351 349 345 343 343 342 340 341 340 339 340 340 340 338 339 341 340 339 339 341 342 341 341 340 339 337 337 336 337 339 340 341 341 339 339 341 341 341 340 339 333 324 321 324 325 327 330 329 322 317 318 319 318 317 317 318 318 317 317 317 317 318 319 319 320 321 320
358 359 359 359 359 360 361 360 359 359 360 359 358 359 358 356 354 354 351 350 347 345 343 343 342 341 340 338 338 339 342 342 341 342 342 341 340 340 341 340 339 339 338 337 335 335 336 337 338 339 340 339 338 338 336 334 331 329 327 321 318 318 317 318 320 321 322 323 324 323 322 321 319 317 316 317 317 316 316 317 317 317 317 317 317
357 358 359 359 359 360 360 360 359 358 359 359 358 359 358 356 355 354 352 350 348 345 344 343 342 342 341 339 338 338 341 342 342 341 341 341 340 339 339 339 338 337 337 337 335 334 336 337 337 338 339 338 338 337 335 333 333 331 327 325 323 320 320 320 321 323 326 328 328 328 328 327 325 322 319 318 317 317 317 318 319 320 320 321 321
359 358 360 360 359 360 360 359 359 358 358 358 357 358 358 357 356 355 353 351 349 346 344 342 342 342 342 341 340 339 339 340 341 341 341 340 340 339 339 338 337 336 336 336 336 335 336 336 336 337 337 337 336 336 336 335 337 336 330 326 327 325 325 325 325 327 328 328 329 329 329 329 329 328 326 323 321 321 321 322 324 325 326 327 326
360 359 361 361 360 360 359 359 359 358 358 357 357 358 357 357 357 356 354 351 349 347 344 342 341 343 344 342 341 340 341 342 341 340 341 341 340 338 338 338 337 337 336 336 336 336 336 336 336 336 336 336 336 336 336 336 337 336 331 327 328 328 328 328 328 328 328 328 329 328 328 329 329 329 330 329 328 328 328 328 329 329 330 330 329
361 360 361 361 360 361 359 359 359 358 358 358 357 357 357 357 356 356 355 352 350 348 345 343 342 343 344 343 342 341 341 343 341 340 341 341 340 337 336 337 336 337 337 337 337 336 337 336 336 336 336 336 336 335 336 336 336 334 330 328 328 328 329 329 328 328 328 328 328 328 328 328 328 329 329 330 330 330 330 331 331 331 331 330 330
360 360 361 361 361 362 361 359 359 359 359 358 358 357 357 357 356 356 355 352 350 348 345 343 343 343 343 342 342 341 340 341 340 340 341 340 341 339 337 337 337 336 337 338 337 336 337 336 336 335 336 336 336 336 336 337 336 333 330 329 329 328 329 329 329 329 329 328 329 329 329 329 329 329 329 329 329 329 330 330 330 331 331 331 331
361 361 361 361 362 363 363 361 361 360 359 359 358 358 357 357 356 357 356 353 351 349 346 344 343 343 342 340 340 340 340 340 338 339 340 340 340 339 338 338 337 337 338 338 338 336 337 336 335 335 336 336 336 337 337 336 336 334 332 333 331 329 329 329 329 329 329 329 329 329 329 329 329 329 329 330 329 329 329 329 329 330 330 331 331
361 361 360 361 362 364 364 363 362 361 360 359 358 358 358 358 357 357 356 354 352 350 347 344 343 343 341 340 339 339 340 340 339 338 338 339 339 339 340 340 337 337 338 339 337 337 336 335 336 336 337 337 336 337 338 336 336 335 333 333 333 331 329 329 329 329 329 330 330 330 330 330 330 330 330 330 330 330 330 330 330 330 330 331 331
361 361 361 361 362 364 364 363 363 362 360 358 357 358 358 358 357 357 356 354 352 351 348 344 343 343 342 341 340 339 340 340 339 339 338 339 338 338 340 341 339 338 338 339 338 337 336 335 336 336 337 338 337 337 338 336 335 336 332 332 335 334 331 330 330 329 329 329 329 330 330 329 330 331 331 331 331 331 331 331 331 331 331 331 331
362 362 363 362 363 365 365 363 363 363 361 359 358 357 358 358 358 357 357 355 353 351 349 346 345 343 342 342 341 339 340 340 339 339 339 340 340 340 340 340 340 340 339 339 339 338 336 335 336 337 337 340 339 338 338 336 335 335 333 334 337 337 335 332 330 330 329 329 329 329 329 330 331 332 332 333 332 332 332 332 332 331 331 331 331
362 363 363 364 363 364 364 364 364 363 362 360 359 357 358 358 358 358 357 355 354 353 350 347 346 344 343 343 342 340 341 341 339 339 341 341 341 340 340 339 340 341 340 340 340 339 337 335 336 338 339 340 340 339 338 337 336 334 335 337 337 338 336 332 330 330 329 329 329 329 329 329 329 330 330 332 332 332 332 332 332 332 332 332 331
362 362 363 364 364 364 364 364 364 363 362 361 359 358 358 358 358 358 358 356 355 354 351 349 347 345 344 344 344 341 341 343 340 338 341 342 341 340 340 339 340 340 340 341 341 339 338 336 335 338 340 340 340 340 340 339 337 334 336 338 337 338 336 331 329 329 328 328 328 328 328 327 326 326 327 329 329 329 329 329 330 331 332 332 332
362 362 363 363 364 364 363 363 363 364 363 361 360 359 358 358 359 358 357 357 355 355 353 350 348 346 345 345 345 344 343 343 341 338 341 343 341 340 340 340 340 340 340 341 341 340 339 337 336 336 339 339 338 339 339 340 339 335 336 339 338 337 334 329 328 328 327 328 328 327 327 326 325 325 325 326 326 327 327 327 329 330 332 333 332
362 362 362 362 363 364 363 362 362 363 363 361 361 360 358 358 359 358 357 357 356 355 354 352 349 348 347 346 345 345 344 344 342 340 341 342 341 340 341 341 341 341 340 340 341 341 339 337 337 337 338 339 339 338 338 339 339 335 334 339 339 336 333 332 333 331 330 330 328 326 325 324 324 324 324 325 326 328 328 328 329 330 331 332 332
362 362 363 362 362 362 363 363 362 363 363 362 362 360 359 358 359 359 358 357 357 357 355 353 350 349 349 347 346 345 344 344 344 341 341 342 341 340 340 341 341 341 341 341 341 342 340 339 338 337 338 339 339 339 338 338 339 338 335 337 339 336 334 335 337 336 334 332 329 327 325 324 323 323 324 326 327 329 329 328 328 328 329 330 330
362 362 363 363 362 362 363 363 363 363 363 363 362 361 359 359 360 360 359 359 358 357 356 354 352 351 350 349 347 347 345 345 345 343 341 341 341 340 340 341 340 340 341 341 340 340 340 341 341 339 338 339 338 338 339 338 338 339 338 338 338 337 336 336 337 337 336 334 331 328 327 325 323 323 324 326 328 329 329 329 328 328 328 328 328
362 362 362 363 363 363 363 364 364 364 363 364 363 362 361 360 360 361 360 359 358 358 356 355 354 352 351 350 349 347 346 345 345 344 342 341 341 340 340 340 340 339 341 342 340 339 340 340 341 340 338 339 338 336 339 339 337 338 339 339 338 337 337 337 337 337 336 335 332 329 327 326 324 324 325 326 327 328 328 328 328 328 328 328 327
362 363 363 362 363 364 364 364 365 364 364 364 363 362 362 361 361 362 361 359 359 358 357 356 356 354 352 352 350 348 347 346 345 344 343 342 342 341 340 341 341 340 340 342 341 340 339 339 341 341 339 339 339 337 337 339 338 338 339 339 338 338 338 339 338 338 338 336 332 329 327 325 324 324 325 326 327 327 327 327 327 327 327 326 326
362 363 363 363 363 364 365 365 365 365 364 364 363 362 362 362 362 361 361 360 359 358 358 357 356 355 354 353 351 349 349 348 346 344 343 343 343 343 342 341 341 341 340 342 343 341 339 339 341 343 341 339 340 339 338 339 339 339 339 339 338 338 339 339 338 338 338 336 333 331 329 327 326 325 324 324 324 325 326 326 325 324 323 321 321
362 362 363 363 363 364 365 365 365 365 365 364 363 362 362 363 362 361 361 360 359 358 358 357 356 355 354 354 352 351 350 349 348 346 345 345 345 344 344 343 342 342 341 341 343 343 341 340 340 342 342 342 341 340 340 339 339 338 339 340 340 340 340 340 338 338 338 336 334 333 331 330 330 327 324 323 323 323 324 323 322 322 320 319 319
362 362 362 363 363 363 365 365 365 366 365 364 364 363 362 363 362 361 361 360 360 359 359 358 357 356 355 354 353 352 351 350 349 348 347 347 347 346 346 345 343 343 343 341 342 343 342 341 341 341 342 342 342 341 341 341 340 339 339 340 341 342 342 342 340 339 338 337 335 333 332 331 329 326 324 323 323 322 322 322 322 321 320 319 318
363 362 361 363 363 364 364 365 365 366 365 365 364 364 363 363 362 361 361 360 360 360 359 358 357 356 355 354 353 352 352 352 350 349 349 349 348 348 347 346 344 344 343 341 342 343 343 342 341 341 341 342 342 341 340 342 342 341 340 340 339 340 342 343 342 340 338 337 335 334 332 331 329 328 327 326 326 325 324 323 323 321 320 320 320
362 362 361 361 363 364 364 365 365 365 365 365 365 364 364 364 363 361 360 360 360 359 360 358 357 357 356 355 354 352 352 352 350 348 348 349 349 349 348 347 346 345 344 342 342 343 344 343 342 342 342 341 341 341 340 341 341 340 341 341 341 340 341 342 341 339 337 335 335 335 334 332 330 330 331 330 330 330 328 326 324 323 323 324 323
363 363 362 362 363 363 364 365 365 365 365 365 363 361 361 363 363 361 360 360 360 359 360 359 357 357 356 355 354 352 351 351 349 347 347 347 347 348 349 348 347 346 345 343 342 343 343 344 342 342 342 341 340 340 340 340 340 340 342 342 342 341 341 341 341 339 337 335 335 335 334 333 332 331 332 331 330 329 329 328 326 326 326 324 322
364 363 363 362 362 362 363 364 364 365 364 363 361 359 359 360 361 362 361 360 360 359 360 359 358 357 356 355 354 353 351 349 348 347 346 345 345 345 346 346 346 346 346 345 344 343 343 343 342 341 341 341 340 340 340 339 340 341 342 341 341 342 341 341 340 340 339 336 335 335 334 332 332 331 332 331 329 328 327 326 325 325 324 321 318
364 364 363 363 362 362 362 364 364 364 364 362 360 358 358 357 357 360 361 360 360 360 359 359 359 357 356 356 355 354 352 350 348 347 346 344 343 343 342 342 342 342 343 344 344 343 342 342 341 340 340 340 340 340 339 339 340 341 342 341 342 341 340 340 340 340 339 336 335 334 332 331 331 331 330 329 328 327 326 325 324 324 322 318 313
365 365 364 364 363 362 362 363 363 364 364 362 360 358 358 357 355 356 359 360 360 360 359 359 359 358 357 356 355 355 354 351 349 348 347 345 343 342 341 341 340 339 339 340 341 342 342 340 340 339 338 339 340 340 339 339 340 341 341 341 341 340 339 339 339 338 338 335 334 332 331 330 329 328 328 327 326 326 325 325 324 323 321 315 308
365 366 365 364 364 364 363 363 363 363 363 363 361 358 357 356 355 354 356 358 359 359 359 359 358 358 358 357 356 355 355 352 349 349 349 348 345 342 341 340 340 339 338 338 338 339 340 340 340 339 338 339 340 340 341 341 340 340 340 340 340 339 339 339 338 337 336 334 333 332 331 329 327 327 327 326 325 324 324 323 322 321 318 312 307
365 366 365 365 365 364 364 364 363 363 363 362 361 359 357 356 355 354 355 357 358 359 359 359 357 357 357 357 357 356 355 353 350 348 349 350 348 345 342 341 341 341 341 340 339 338 339 339 340 340 339 340 340 340 341 342 341 340 339 339 339 338 337 337 336 335 333 332 332 331 330 327 327 326 326 325 324 323 322 321 320 318 316 312 308
365 365 365 365 365 364 364 364 363 363 363 362 361 360 358 357 355 354 354 356 357 358 359 358 356 356 356 356 356 356 355 354 351 349 349 349 350 348 346 345 344 343 343 342 341 340 339 339 340 340 339 339 339 340 340 340 340 340 338 336 336 336 335 335 335 334 332 331 331 330 328 326 326 325 324 323 323 322 321 320 319 318 316 313 311
364 365 365 365 363 363 363 363 362 362 362 362 360 358 358 357 356 354 354 355 357 358 358 357 355 355 355 355 355 355 355 354 352 349 348 348 349 349 348 347 346 345 345 344 342 340 339 339 340 340 340 340 339 339 339 338 338 338 337 335 335 335 335 335 335 332 330 329 329 328 326 325 325 324 323 322 322 321 320 319 319 319 317 315 314
364 364 365 364 363 362 362 363 362 362 363 363 361 358 358 358 356 354 354 355 357 358 358 357 355 355 355 354 354 353 354 354 352 350 348 347 348 349 349 348 347 346 346 345 343 341 340 339 339 339 340 339 339 339 338 336 335 335 336 336 335 335 334 333 331 329 328 327 326 326 325 325 323 322 322 322 321 320 320 318 318 318 317 316 316
364 364 363 363 363 363 363 362 362 362 363 364 361 359 359 358 356 354 355 356 357 357 358 357 356 355 354 354 353 353 353 353 351 350 348 346 347 349 348 347 347 346 346 346 344 342 341 340 339 339 338 338 338 337 336 335 334 334 335 336 335 334 333 331 329 327 328 327 326 325 324 323 322 321 321 321 320 320 319 318 317 317 316 316 316
Wind_Speed
5 5 4 4 3 3 2 2 1 0 1 2 3 3 3 3 3 4 4 4 5 4 5 4 3 2 1 1 2 3 3 3 2 2 2 2 3 3 3 3 3 4 3 2 1 1 3 5 5 5 5 6 5 5 5 5 5 6 8 8 8 7 6 5 5 5 5 5 5 5 5 4 4 4 4 4 3 3 3 3 3 3 4 4 5
5 5 4 4 3 3 3 2 2 1 1 2 2 3 3 3 3 4 4 4 5 5 4 4 3 2 1 1 2 2 2 3 3 1 1 2 2 2 2 3 2 3 3 2 2 1 1 4 6 6 6 7 7 6 5 5 5 5 6 7 8 8 7 6 6 5 5 5 6 6 5 5 5 5 5 5 4 4 4 4 4 4 5 5 5
5 5 4 4 4 4 3 3 2 1 1 1 2 2 2 3 3 4 4 5 5 5 4 3 2 2 2 1 2 3 3 3 3 0 1 2 1 1 2 2 1 2 3 3 3 3 1 1 4 5 6 7 8 7 7 6 6 6 5 7 8 7 7 7 7 7 6 6 6 7 6 6 6 6 6 6 5 5 5 5 5 6 6 6 6
5 5 5 4 4 4 3 3 2 2 2 2 2 2 2 2 2 2 4 5 5 5 4 3 2 2 2 2 3 3 4 4 2 1 1 1 2 1 1 2 1 1 2 3 3 4 3 1 1 4 6 8 8 8 8 6 5 6 6 6 7 7 8 8 8 8 7 7 7 8 7 7 7 7 7 7 7 6 6 6 6 7 7 7 7
6 6 5 5 5 5 4 3 3 2 3 2 2 2 2 2 1 2 3 4 5 4 3 2 2 1 1 3 4 5 5 3 1 0 0 1 2 1 1 2 1 1 2 2 3 4 4 2 1 2 6 8 9 9 8 7 6 6 7 7 7 8 8 8 8 8 8 8 8 8 8 7 7 8 7 7 8 7 7 8 8 9 9 9 8
7 7 6 6 6 6 5 4 3 3 3 2 2 1 1 2 2 3 4 4 4 3 2 1 1 1 2 4 4 5 5 2 0 1 1 1 1 1 2 2 0 1 2 1 2 3 4 3 1 2 4 6 7 7 8 7 7 7 8 8 8 9 9 8 8 8 9 9 9 9 8 8 9 9 8 8 8 7 8 9 9 10 10 10 10
8 7 6 7 7 6 5 4 3 3 2 2 2 2 2 1 2 4 4 4 4 2 1 1 1 1 2 3 4 5 4 2 1 2 1 2 1 2 2 2 1 1 1 1 2 3 3 3 1 2 2 3 4 5 7 8 8 8 9 8 8 9 9 9 9 9 10 10 10 10 9 9 9 10 10 10 9 8 9 9 9 10 10 10 10
9 8 8 7 7 7 5 4 4 3 3 2 3 3 2 1 2 4 4 4 3 1 2 2 2 1 1 1 3 4 3 3 2 1 2 2 2 2 3 3 2 1 0 0 3 4 3 3 2 1 1 2 3 4 6 8 9 10 10 10 10 9 9 9 9 10 10 11 10 10 10 10 11 11 11 12 11 10 10 10 10 10 10 11 11
10 10 9 8 8 7 6 5 4 4 3 3 3 3 2 1 1 3 4 3 2 1 2 2 2 1 1 0 2 3 2 2 2 2 3 2 2 2 3 4 3 2 1 2 4 4 3 3 2 1 1 1 2 3 4 6 8 9 10 10 11 10 10 9 9 10 10 11 11 11 12 12 13 12 11 12 12 11 11 11 12 12 12 12 12
11 11 10 9 9 8 7 5 5 4 4 5 4 3 2 2 1 2 3 2 1 1 2 2 2 1 1 1 2 3 1 1 2 2 2 2 3 3 4 4 4 3 2 2 3 2 2 3 3 2 2 1 1 2 2 3 4 6 8 10 11 10 10 9 10 10 10 10 10 11 12 12 13 12 11 12 12 11 12 12 13 13 13 14 14
11 11 11 10 10 9 8 7 6 5 5 5 4 3 3 2 2 2 2 1 0 1 2 1 1 1 2 1 1 3 2 0 1 1 2 2 3 3 4 4 4 4 3 2 2 2 3 2 2 2 1 1 2 2 1 1 2 3 5 7 9 9 9 9 9 9 9 9 9 10 11 12 12 11 11 12 11 11 12 13 13 14 14 15 15
11 11 11 11 10 9 8 7 7 6 6 6 4 4 4 3 2 2 1 1 2 1 1 1 2 2 3 3 2 3 2 1 2 1 2 2 3 4 4 4 4 4 3 3 3 3 3 3 2 2 1 1 1 2 1 1 1 2 3 5 6 7 7 7 7 8 8 8 8 9 11 11 11 11 11 12 11 11 12 12 13 14 15 15 14
12 11 11 11 10 9 8 8 8 7 7 6 4 4 4 3 2 1 0 2 2 1 1 1 2 2 2 2 2 3 3 3 3 2 3 3 4 4 4 4 4 4 4 4 4 3 4 4 3 3 3 2 1 1 1 2 1 1 2 4 5 5 5 6 7 7 7 7 7 8 10 10 10 11 12 12 12 12 12 12 12 13 14 15 14
12 12 12 11 11 10 9 8 8 7 7 6 5 5 5 4 3 1 1 1 1 1 1 1 1 0 0 1 3 3 2 3 4 3 4 4 4 4 3 3 4 4 3 4 4 3 3 4 4 4 3 2 1 1 2 3 1 1 1 2 2 2 3 3 5 5 6 6 6 8 9 9 9 10 11 11 11 12 12 12 11 12 12 13 13
13 13 13 12 11 11 10 9 8 7 7 7 6 6 5 4 4 2 1 2 1 1 2 3 1 3 2 2 2 3 2 3 4 3 4 4 4 4 3 3 4 4 3 3 3 3 4 4 5 4 4 3 1 2 3 3 1 1 2 1 1 1 1 1 0 2 3 4 4 5 6 6 6 7 7 7 7 8 8 8 8 8 8 9 10
14 14 14 13 12 11 10 9 8 8 8 7 6 6 5 5 4 2 2 2 2 3 3 3 2 2 2 1 1 2 2 3 4 4 4 5 4 4 3 2 4 4 3 4 4 4 5 5 5 4 3 3 3 3 3 3 3 4 4 3 2 3 4 5 4 3 2 1 1 2 3 3 3 3 4 4 5 6 6 6 6 6 6 6 7
15 15 15 14 13 12 11 9 9 9 9 8 6 5 5 5 4 3 3 2 2 3 3 3 3 3 2 0 1 1 1 3 4 3 3 5 4 4 3 3 4 3 3 5 5 5 6 5 5 5 4 3 4 4 4 4 5 5 5 4 4 4 4 5 5 5 4 4 4 2 1 1 2 2 3 4 4 5 5 5 5 5 5 5 6
16 16 15 15 14 13 12 11 10 10 9 8 6 5 5 5 4 3 4 3 3 3 3 4 4 4 4 3 2 1 2 2 3 2 3 4 4 4 3 3 3 3 3 5 5 4 5 5 5 5 4 4 4 5 5 6 7 6 6 6 6 6 5 5 6 6 5 5 5 4 3 2 2 3 3 3 4 4 4 4 4 4 4 4 5
16 16 17 16 15 14 13 12 12 10 9 9 7 6 6 5 5 4 4 5 5 4 4 5 5 5 5 4 3 2 1 1 1 1 2 3 4 4 4 4 3 3 4 3 3 4 4 4 5 5 5 5 5 6 6 7 8 8 8 8 8 8 7 7 7 7 7 6 6 5 4 3 2 2 2 2 3 3 4 4 4 5 5 5 5
18 17 17 17 16 15 14 13 13 11 10 9 8 6 6 6 6 5 4 6 6 5 5 5 6 6 5 5 4 3 3 3 2 2 1 1 3 4 4 5 4 3 4 3 1 3 4 3 4 5 5 5 5 6 7 8 8 8 9 9 9 9 8 8 8 7 7 6 6 5 4 3 2 1 1 2 2 3 4 4 5 5 6 6 6
19 18 18 18 18 16 15 15 14 12 11 10 8 7 7 7 7 6 6 7 7 6 6 6 6 6 6 5 4 3 4 4 4 4 3 2 2 3 4 4 4 3 3 3 3 3 4 3 3 4 4 5 5 6 6 7 7 7 7 8 9 9 9 8 8 7 6 5 5 3 3 2 2 2 2 2 2 3 3 4 5 6 6 7 7
18 19 18 18 18 17 16 15 14 13 12 11 9 9 9 9 9 8 8 8 8 8 7 7 7 6 6 6 5 4 5 4 5 5 3 2 2 3 5 6 5 5 5 4 4 4 4 4 3 3 4 4 5 5 5 6 6 6 6 6 6 6 7 7 7 7 6 4 3 2 1 1 1 2 2 2 3 3 4 4 5 6 7 8 8
17 18 19 19 18 18 17 16 15 14 13 13 11 10 10 9 9 9 9 10 10 9 8 8 8 7 7 7 6 6 6 5 5 5 4 3 3 3 3 3 2 4 5 3 4 5 4 4 4 3 3 4 4 5 5 5 6 5 4 4 4 4 5 5 5 5 4 3 2 2 2 2 2 3 3 4 4 4 5 6 6 7 8 9 9
18 17 18 19 19 18 18 17 15 14 14 13 12 11 10 10 10 10 10 11 11 10 9 9 9 9 9 8 8 7 6 6 5 5 5 4 3 4 2 1 1 2 4 3 5 7 7 6 6 5 5 5 5 5 5 5 6 5 4 5 5 5 6 6 5 5 5 4 4 4 4 5 5 6 6 6 7 7 8 8 8 9 9 10 10
20 19 19 19 19 19 18 18 17 15 14 13 12 12 11 11 11 11 11 12 13 12 11 10 11 10 9 9 8 8 7 7 6 5 5 5 4 5 4 1 3 4 4 4 6 7 8 9 7 6 6 6 6 7 7 6 6 7 6 7 8 8 9 9 8 8 8 7 7 7 7 7 8 8 9 9 10 10 10 11 11 11 11 11 12
21 21 20 19 19 19 19 19 18 16 15 13 13 13 13 12 12 12 13 13 14 13 12 11 11 11 10 9 8 8 7 7 7 6 6 6 5 6 4 3 4 4 4 5 6 6 8 8 9 9 8 9 9 8 8 7 7 9 9 9 11 12 12 11 11 11 10 10 9 9 9 10 10 11 12 12 12 13 13 13 13 14 13 13 13
21 21 21 20 19 19 19 19 18 18 17 15 14 14 14 14 14 13 13 13 14 14 13 12 12 12 11 10 9 9 8 7 7 7 6 5 5 5 4 3 4 4 4 5 6 7 8 6 7 9 9 11 11 10 10 10 8 11 12 10 11 13 14 13 13 13 13 12 12 12 12 12 13 14 15 15 15 15 16 16 16 16 16 16 15
20 21 20 20 20 20 19 20 19 19 18 17 16 15 15 16 15 14 14 14 15 15 14 13 13 13 12 12 10 10 9 8 8 8 7 6 5 5 5 5 4 3 3 4 5 7 8 7 8 8 9 10 10 10 12 11 10 12 12 10 9 11 13 14 14 14 14 13 14 14 14 15 15 16 16 16 16 17 17 17 17 18 18 18 17
21 20 20 21 21 21 20 20 19 20 19 19 18 16 16 17 17 16 16 15 16 16 15 14 14 14 13 13 13 11 10 10 10 9 8 8 7 7 8 8 6 4 3 3 4 5 6 7 8 8 9 9 8 9 10 9 11 12 9 8 8 9 11 12 12 12 12 12 13 13 14 15 15 16 16 16 16 16 17 17 18 18 19 19 19
21 20 21 21 22 22 21 20 20 20 20 19 19 18 17 17 18 18 17 16 16 17 16 15 15 14 14 14 14 13 12 11 11 11 11 10 10 10 10 10 9 8 6 4 4 5 6 7 7 7 8 8 8 9 8 8 11 11 8 8 8 9 10 10 9 9 9 10 11 12 13 13 13 14 14 15 15 15 16 16 17 18 18 18 19
23 22 22 22 22 22 22 22 20 21 21 20 20 19 19 18 19 18 17 17 18 17 16 16 15 15 15 15 15 14 13 13 12 12 13 13 12 12 12 12 12 11 10 7 5 5 7 7 7 6 6 7 8 8 7 8 10 11 8 8 8 10 10 8 7 7 6 7 8 9 10 11 12 12 13 13 13 13 14 14 14 15 16 17 17
23 24 24 23 23 23 23 23 22 21 22 21 21 21 20 19 19 19 19 19 19 18 17 17 16 15 16 16 16 15 15 14 14 14 14 14 14 13 13 13 13 13 12 11 8 7 8 8 8 7 7 8 9 9 8 8 9 11 9 8 9 10 8 7 7 7 5 5 7 8 10 11 11 12 12 12 12 12 12 12 13 13 14 15 15
24 24 25 25 24 24 23 23 23 22 22 22 22 22 21 21 21 21 20 20 20 19 18 17 17 17 17 17 17 17 16 16 15 15 15 15 15 15 14 13 13 13 13 13 11 9 9 10 9 9 8 8 9 10 10 9 9 10 9 9 9 9 8 7 8 8 6 6 7 8 10 11 11 11 11 11 11 11 11 12 12 13 13 13 14
26 25 25 25 25 25 24 23 23 23 23 23 22 22 22 22 22 22 21 21 21 19 18 19 18 17 18 18 18 18 18 17 17 16 15 15 16 16 15 15 14 14 14 14 12 11 10 10 10 10 9 9 10 10 11 11 10 9 10 10 10 10 9 9 8 8 7 7 8 9 10 11 11 11 11 10 10 11 11 12 12 13 13 14 15
26 27 26 25 25 25 25 23 23 23 23 23 23 22 23 23 23 23 22 22 22 20 20 20 19 19 19 20 20 19 18 18 18 17 16 16 16 16 16 16 15 15 15 15 14 12 11 10 10 10 10 10 11 10 11 11 10 10 11 11 11 11 10 10 9 8 8 9 9 9 10 11 11 10 10 10 11 11 12 13 13 14 15 16 16
26 26 27 26 25 25 25 24 24 24 24 24 23 23 23 24 24 24 23 23 23 22 21 21 21 21 21 21 21 20 19 19 19 18 17 17 17 17 17 16 16 15 14 14 15 13 11 11 10 10 10 10 10 10 11 11 11 11 11 11 12 11 11 11 10 9 10 11 10 9 10 10 10 9 10 10 11 13 14 14 14 16 17 17 18
28 26 26 27 26 26 25 25 24 25 25 25 24 24 24 25 25 24 23 24 24 23 22 22 22 22 23 23 22 21 21 20 20 20 19 19 18 17 17 17 16 15 14 14 14 14 13 11 11 10 10 10 10 10 11 11 11 11 12 12 12 12 12 12 11 10 11 10 9 8 8 8 8 9 8 9 11 13 14 14 15 17 18 19 20
29 27 27 27 27 27 26 25 25 25 25 25 25 25 25 25 24 24 23 23 24 23 23 23 23 23 24 24 23 22 22 22 21 21 20 20 20 18 18 17 16 16 15 15 14 13 14 13 12 11 11 11 11 11 11 12 11 11 11 12 13 13 12 12 12 11 10 9 7 8 8 6 7 11 12 12 13 13 12 13 16 17 18 19 20
29 29 28 27 27 27 26 26 25 25 26 26 25 26 26 25 24 24 24 23 23 23 23 23 23 24 24 24 24 23 23 24 23 22 21 21 20 19 19 18 17 16 16 15 15 14 14 14 13 13 12 12 12 11 11 11 11 11 11 12 12 12 12 12 12 10 9 9 10 11 11 9 11 15 16 15 14 13 12 14 17 17 17 17 18
29 30 29 28 27 26 26 27 26 26 26 26 26 26 28 26 24 24 24 24 23 23 23 23 24 24 24 25 24 24 24 25 24 23 22 22 20 19 19 18 17 17 17 16 16 15 15 15 15 14 13 13 13 12 11 11 11 12 12 13 12 11 10 10 10 10 10 11 12 12 11 12 13 14 13 13 13 13 14 16 17 17 15 13 14
29 29 29 29 27 26 26 27 27 27 27 27 27 28 28 27 25 24 25 25 25 23 22 23 24 24 25 25 24 24 24 26 27 27 25 23 21 19 19 19 18 18 17 16 16 16 15 15 15 14 14 14 14 13 12 13 13 12 11 12 12 11 10 10 11 12 12 11 11 11 11 11 11 10 10 11 12 13 15 15 15 13 10 9 12
28 28 28 29 28 27 27 27 28 28 28 28 31 32 31 28 26 25 25 25 25 24 22 22 24 24 25 25 24 24 26 27 29 30 28 27 25 21 18 19 19 18 18 17 17 17 16 15 15 15 14 14 14 14 14 13 13 12 11 11 11 10 10 10 10 11 11 10 9 9 9 9 10 11 11 12 12 13 14 14 13 11 10 12 15
28 28 28 29 29 28 27 28 28 29 29 30 34 36 36 34 29 24 24 24 24 24 23 23 23 24 25 25 23 24 26 29 30 31 30 29 29 27 23 21 21 20 19 18 18 17 16 15 15 15 15 15 14 13 13 12 12 11 11 10 11 10 9 10 10 9 10 9 8 8 9 9 10 12 12 13 14 14 13 14 14 14 15 16 17
29 28 28 29 30 29 28 28 29 29 30 32 37 38 39 39 35 27 23 22 23 24 24 23 23 23 23 24 23 21 23 27 29 29 30 31 30 30 29 26 25 24 22 21 19 18 18 17 16 16 16 15 14 13 13 12 10 10 10 9 10 10 9 10 10 9 8 7 7 8 10 10 10 12 13 13 13 13 12 13 14 15 16 16 17
28 28 29 29 29 30 29 29 29 29 28 31 37 39 39 40 40 34 26 22 22 23 23 23 23 23 23 22 22 20 20 24 27 25 25 29 30 31 30 28 27 27 26 26 24 21 20 18 17 18 17 16 14 13 11 11 10 9 9 9 9 9 10 10 10 9 7 6 7 9 11 12 12 13 14 13 11 11 11 12 14 15 16 16 15
28 28 28 29 29 30 30 29 29 29 28 30 34 39 40 40 40 39 32 25 23 23 22 23 23 24 24 23 22 21 20 23 27 25 21 22 24 28 29 28 27 26 27 28 28 28 25 21 19 19 18 17 15 13 10 11 11 10 9 9 9 9 9 8 8 8 7 8 9 9 11 12 11 12 12 11 10 10 11 12 14 16 17 15 12
28 28 28 29 29 29 29 29 28 28 28 31 33 36 39 40 40 41 37 30 26 25 24 24 25 25 25 25 23 23 22 23 27 27 23 20 20 22 25 25 23 22 23 26 28 29 28 24 21 19 18 17 16 14 11 11 11 9 7 7 7 7 8 8 8 9 11 12 12 9 10 11 10 10 10 10 10 11 11 12 15 17 17 15 12
28 28 28 30 30 29 29 30 31 29 29 33 36 37 38 39 40 41 40 34 30 29 27 26 27 27 27 27 26 25 23 24 27 29 26 22 20 21 21 21 21 20 21 23 25 26 26 25 23 21 19 18 17 15 13 11 10 8 6 7 8 8 9 10 10 11 11 10 12 9 10 12 10 10 10 10 11 13 13 14 15 16 16 15 14
29 28 29 29 30 29 30 32 33 32 31 34 38 39 38 39 41 43 41 34 31 31 29 28 28 28 29 30 30 27 24 25 28 31 29 25 22 22 22 21 21 20 19 21 23 24 23 23 23 22 21 20 18 17 15 13 12 10 8 8 10 11 11 10 9 10 9 7 9 8 9 10 9 9 11 11 12 14 14 14 12 12 13 15 15
29 29 28 28 28 29 31 33 33 32 31 33 37 39 39 39 42 44 40 33 31 30 30 29 28 28 29 32 33 30 27 27 30 30 30 28 25 23 23 23 21 21 19 18 20 22 22 21 23 24 24 22 20 18 17 16 15 13 12 11 12 11 12 11 10 10 10 10 9 8 7 8 9 9 10 12 13 14 13 12 11 11 13 14 15
29 28 27 27 28 28 29 30 32 32 30 31 34 38 39 40 43 43 37 31 31 31 30 29 29 30 31 32 35 35 30 28 30 29 29 31 28 24 25 24 21 21 22 19 19 21 21 21 22 23 22 22 20 18 16 16 16 15 14 14 12 11 11 12 12 10 9 7 6 8 7 7 8 8 10 11 11 11 11 12 12 11 12 13 13
Wind_Direction
193 193 194 198 208 206 197 199 209 280 356 2 9 2 358 13 12 1 358 348 339 334 332 327 313 301 354 21 12 16 17 3 2 13 13 54 93 96 87 91 89 86 85 98 157 207 231 234 227 216 212 213 206 203 207 204 208 198 189 196 195 192 195 194 195 194 193 195 199 202 204 210 218 220 223 227 232 238 245 261 269 273 274 277 287
196 195 197 202 209 210 203 208 221 248 326 353 3 356 354 6 7 354 351 342 332 331 334 339 335 360 71 11 338 353 4 343 324 322 353 31 89 113 103 98 100 95 85 67 43 60 221 239 236 223 214 218 212 204 208 204 207 205 197 205 204 197 196 200 203 201 205 211 214 218 216 221 231 233 238 245 250 256 260 270 276 278 279 279 286
202 198 202 209 212 214 210 218 236 260 296 326 339 347 350 354 359 347 340 334 328 333 342 359 13 42 66 17 349 349 353 338 310 232 48 11 60 141 128 104 109 102 85 61 39 45 57 254 242 226 219 224 219 209 209 203 204 212 213 214 214 207 201 203 209 210 212 222 231 234 229 233 243 242 244 250 252 256 262 269 276 277 279 281 285
210 204 208 214 215 214 214 229 252 275 292 310 317 326 334 338 353 330 324 325 326 336 341 359 46 61 62 33 12 1 349 335 324 98 105 3 41 119 126 103 124 132 86 53 36 32 32 28 268 230 224 227 225 222 218 208 206 214 219 220 220 219 212 210 216 218 217 224 236 244 243 245 255 254 248 252 257 259 264 267 271 273 274 277 279
212 210 213 218 219 219 219 235 256 275 295 303 299 299 320 322 328 315 313 318 323 333 333 344 46 57 56 33 11 359 346 326 334 71 234 360 34 71 124 136 144 106 93 60 32 22 15 8 334 241 227 227 227 229 226 217 214 218 221 224 226 227 223 222 225 224 224 229 236 245 250 251 254 257 252 252 257 259 262 263 265 268 271 274 276
211 213 216 221 224 224 225 237 252 268 288 288 282 282 304 313 320 315 311 319 323 329 330 344 62 26 25 16 3 356 344 332 306 281 298 348 17 67 128 158 360 58 94 82 48 25 3 349 309 266 241 234 233 232 231 223 220 225 225 223 225 227 227 230 233 230 231 235 239 245 251 254 253 257 256 251 252 253 255 257 259 265 270 274 277
214 216 220 226 229 229 230 234 244 261 277 267 269 271 273 298 312 306 313 329 330 336 360 37 73 46 24 360 352 351 344 359 347 297 337 353 11 70 121 139 115 79 71 331 82 67 1 346 312 275 267 248 237 231 235 229 227 233 230 226 227 228 228 233 236 233 233 237 242 246 248 251 254 258 257 252 249 247 249 252 254 260 266 270 274
218 220 223 230 233 234 232 228 239 257 265 262 262 259 256 262 289 304 326 345 338 5 56 56 55 65 54 342 345 347 349 22 19 348 20 17 30 76 117 123 127 109 43 360 81 75 18 356 360 282 294 279 243 225 233 232 233 238 234 232 234 232 231 235 240 240 237 236 239 245 247 248 251 254 255 254 252 249 250 254 256 258 263 266 269
220 221 225 230 235 238 237 229 236 251 255 258 254 252 258 255 260 300 332 354 348 32 63 55 48 58 217 80 353 342 348 26 34 47 33 30 57 87 109 117 127 119 122 115 78 66 39 16 12 316 334 318 233 214 222 229 238 242 237 239 242 240 237 238 244 247 245 240 241 247 250 250 253 255 256 255 256 256 256 258 260 260 262 264 266
220 222 226 230 236 240 240 234 237 246 251 253 250 248 256 261 271 301 337 7 6 34 46 30 25 334 294 40 342 317 313 47 37 68 71 67 80 95 111 118 124 118 112 105 90 75 56 26 19 8 4 31 162 169 193 218 239 247 242 241 245 245 244 244 245 248 249 242 243 250 252 252 255 259 260 261 263 265 265 264 264 265 266 267 267
219 223 225 229 234 238 238 237 239 242 250 255 257 252 238 242 275 317 349 24 149 55 54 41 360 305 309 324 293 290 298 345 347 92 114 93 95 111 115 114 112 111 104 106 122 112 96 63 53 56 8 33 154 152 155 194 216 235 246 245 245 248 250 251 249 248 248 244 244 250 253 255 260 266 269 270 272 273 272 270 269 270 270 269 270
219 222 224 227 231 234 235 235 238 241 249 255 259 249 226 222 264 320 347 161 143 102 84 24 319 314 304 291 261 256 253 261 283 168 143 125 117 121 116 111 101 97 97 101 120 117 116 117 113 127 107 66 111 119 128 134 202 223 240 247 245 247 251 253 249 245 245 246 247 252 255 259 267 273 274 276 279 279 277 274 272 272 270 269 272
220 221 222 226 228 230 232 233 237 238 245 250 245 236 227 233 263 297 239 169 151 150 129 360 302 280 252 232 215 230 226 226 248 200 158 150 135 127 119 116 105 98 97 94 102 112 119 120 120 127 121 121 117 78 79 80 19 260 224 239 244 246 253 252 245 239 238 242 245 250 258 265 271 275 278 285 291 290 288 284 280 277 273 272 274
220 221 222 222 224 228 231 232 236 236 239 244 237 229 236 250 247 232 191 162 165 164 159 228 253 156 171 201 181 191 217 230 232 194 167 165 150 135 120 110 98 87 89 92 95 96 96 102 108 110 116 143 156 84 83 91 5 316 172 228 256 258 259 253 247 239 232 236 242 252 262 269 276 278 282 290 294 294 294 293 289 283 278 277 278
219 220 222 221 222 226 230 233 233 232 232 231 227 224 236 244 228 221 176 144 162 170 200 255 275 105 143 221 180 168 181 227 233 200 177 177 160 141 128 103 92 79 68 74 76 79 76 85 98 104 118 134 132 103 103 127 183 73 97 127 133 82 64 73 165 224 225 235 242 253 263 270 275 277 283 289 291 295 298 301 301 292 282 281 285
218 219 221 222 222 223 229 232 230 229 227 223 220 221 233 237 223 214 190 174 186 176 190 251 254 158 173 159 132 186 178 181 202 198 180 184 180 157 144 121 104 95 80 73 69 81 86 87 93 99 114 126 131 132 121 127 121 86 82 93 103 89 75 79 85 94 122 132 148 216 252 274 278 277 290 294 290 292 296 302 306 296 284 283 291
217 218 220 222 223 223 227 230 231 232 230 228 223 221 233 233 221 206 195 208 219 185 180 218 223 219 236 190 131 213 141 146 175 192 193 190 183 164 159 155 133 112 99 96 94 98 100 97 90 90 97 106 115 122 119 115 105 88 81 84 97 96 84 81 81 81 78 73 79 89 70 3 344 328 315 314 309 303 301 303 301 295 291 290 293
217 218 220 222 224 224 227 231 234 234 234 234 231 227 233 229 220 209 187 198 224 214 193 196 199 211 233 262 304 348 58 122 172 175 200 204 191 188 186 173 148 129 126 125 123 116 106 104 97 85 87 93 100 106 105 106 107 103 97 98 99 99 97 93 90 90 84 74 70 69 59 37 8 347 341 338 334 329 327 327 319 313 312 310 309
216 218 219 221 223 225 227 231 235 236 236 238 236 231 233 225 215 210 188 188 204 218 206 182 182 204 217 238 268 296 343 289 233 157 180 204 210 210 199 185 180 160 156 163 145 124 114 113 110 100 94 96 101 106 106 107 109 107 102 102 103 103 102 98 97 100 97 86 75 68 58 46 20 337 322 320 319 322 324 323 322 321 318 317 315
215 217 218 220 222 224 227 231 234 235 234 237 238 232 228 221 211 203 188 189 196 205 206 186 183 194 200 218 238 250 262 256 263 281 271 222 198 202 197 187 196 193 173 185 175 116 125 128 111 112 112 108 109 110 114 118 119 113 106 105 108 111 110 107 108 108 107 103 93 84 75 60 49 19 321 298 295 297 303 308 313 315 315 317 314
215 216 218 219 220 223 226 231 233 233 232 234 236 232 226 220 214 203 190 195 196 192 197 199 199 188 178 201 222 218 231 239 244 256 270 275 176 167 178 187 203 213 188 185 189 153 148 147 125 123 122 120 122 120 122 129 133 133 128 120 117 120 123 125 130 133 134 132 126 119 103 77 52 37 14 345 323 307 304 304 306 309 311 312 312
216 216 217 218 219 222 225 228 230 230 232 233 232 232 228 221 218 208 196 198 195 189 192 197 202 193 175 185 199 200 210 221 227 228 222 228 234 181 171 188 204 191 186 202 195 183 174 167 164 149 135 135 137 137 142 146 150 154 153 142 134 136 139 144 151 155 157 154 146 147 131 56 7 358 348 338 325 309 303 300 300 304 306 306 306
218 216 217 218 219 221 223 226 226 225 227 229 229 230 228 222 217 208 201 202 196 189 191 193 194 196 190 189 196 203 205 208 220 222 207 202 230 235 181 184 236 173 167 203 212 204 205 196 199 184 156 160 161 163 170 170 175 182 183 177 172 173 174 174 178 178 176 182 192 209 239 265 279 287 290 292 291 289 288 288 291 295 298 302 303
219 218 217 216 216 218 221 222 221 220 222 224 227 229 228 220 213 207 203 204 199 190 190 193 193 196 201 202 205 212 211 214 222 216 214 216 225 264 263 127 293 218 173 196 219 219 221 220 219 203 186 192 194 195 196 189 202 220 223 224 224 216 214 213 209 210 213 213 220 228 238 248 256 262 267 271 274 277 279 281 283 286 288 291 293
217 219 218 215 213 214 215 217 217 216 215 217 222 226 226 220 212 208 206 206 201 192 191 194 194 197 205 209 211 214 209 212 226 219 209 210 216 244 259 209 224 223 185 201 223 220 220 226 229 218 205 210 212 213 217 213 221 236 233 236 248 242 231 229 224 220 222 224 227 234 242 250 257 260 262 265 266 268 270 272 274 276 279 281 283
216 219 219 216 213 213 213 214 213 210 207 209 216 222 224 219 214 211 209 209 205 197 193 195 197 199 204 209 212 214 210 206 213 221 215 209 213 226 237 239 239 223 189 202 220 224 223 218 217 221 217 219 226 223 226 231 235 241 241 245 253 251 242 237 236 233 231 234 238 244 253 260 265 268 268 268 267 267 267 267 267 268 271 274 277
217 219 219 215 213 212 212 213 209 205 204 204 210 218 221 218 216 215 212 211 209 202 196 197 198 199 200 205 211 212 212 209 205 212 223 220 218 222 220 227 236 225 206 205 210 222 231 214 204 218 220 221 228 229 232 237 241 248 254 255 251 252 251 245 242 243 242 242 248 254 262 270 275 279 279 277 275 274 273 271 269 267 266 267 270
216 217 216 214 212 211 212 212 208 204 203 202 204 211 217 218 216 215 214 212 211 205 199 199 200 200 200 201 208 213 210 212 213 213 220 222 219 218 216 222 233 231 218 215 215 220 224 216 207 209 216 224 225 228 236 239 240 249 256 254 243 244 252 251 245 245 246 247 252 258 267 275 282 284 284 283 282 280 280 279 278 276 272 268 267
214 214 214 213 212 212 212 212 208 205 203 202 204 207 212 216 215 213 213 213 213 208 201 200 202 202 203 202 205 211 208 208 214 214 213 214 215 215 214 217 225 235 237 230 233 226 214 218 217 200 203 223 224 223 234 234 235 241 242 240 236 234 245 250 246 245 248 254 261 268 275 280 284 285 284 284 283 283 283 283 282 281 279 275 271
214 213 213 212 211 212 212 211 208 206 204 203 203 204 207 214 217 214 213 212 213 211 204 202 204 202 204 204 204 208 209 207 211 213 211 210 212 214 215 215 216 224 238 241 241 233 218 224 232 206 196 214 221 222 225 224 233 239 233 231 232 229 238 243 242 247 256 263 270 277 281 284 286 286 286 286 286 287 287 286 284 281 280 277 275
213 212 212 211 211 211 213 213 210 207 206 203 202 201 203 211 216 215 214 212 212 213 207 202 204 205 204 204 205 207 207 207 210 211 209 209 211 212 213 214 213 217 225 234 240 230 221 225 233 223 205 211 217 221 219 220 237 244 232 229 233 231 237 243 243 251 262 270 280 285 287 290 289 288 288 288 289 290 289 289 288 284 280 277 275
213 213 213 213 212 211 213 214 212 209 207 204 202 201 201 207 213 214 211 209 211 213 210 205 203 204 204 205 207 207 206 208 210 211 208 208 210 212 212 212 214 215 217 225 235 232 226 228 230 230 223 218 217 221 221 219 236 245 234 229 237 237 235 238 246 259 279 291 292 292 292 291 288 288 288 289 290 289 288 290 291 288 284 281 279
213 212 213 214 213 212 213 213 212 209 207 205 203 200 201 203 209 213 207 204 209 211 209 208 204 203 204 207 209 208 208 209 210 211 210 209 209 211 213 213 214 215 213 219 232 237 232 227 230 237 229 222 220 220 223 221 225 233 229 223 227 229 228 234 244 253 270 296 299 292 291 291 289 289 289 289 288 284 284 287 287 288 287 285 285
213 213 213 214 214 213 213 212 210 208 206 205 204 201 201 201 205 210 205 200 204 206 206 207 205 204 205 208 210 209 209 211 213 214 213 211 210 211 212 213 215 215 213 216 225 235 234 226 228 235 227 223 227 222 221 226 224 220 218 217 219 221 227 237 246 249 258 282 292 286 286 288 288 288 286 283 282 280 281 282 282 282 284 286 287
213 214 214 215 213 212 213 211 208 207 206 205 206 205 203 201 202 206 203 200 203 203 204 206 205 205 208 211 212 210 209 211 213 216 215 213 213 213 213 215 218 219 215 216 221 230 237 232 225 226 221 218 226 225 222 226 226 220 217 218 218 223 230 235 243 253 259 271 282 283 285 288 289 288 285 283 283 283 281 280 281 282 283 284 285
213 214 215 215 213 211 211 211 208 206 205 205 207 208 207 203 202 203 202 202 205 204 203 206 206 207 210 213 214 211 209 210 212 214 216 215 215 215 215 215 219 223 220 218 222 226 235 238 227 221 220 218 220 224 223 223 224 222 222 223 222 226 231 233 241 248 251 264 279 279 278 282 284 284 284 285 288 287 285 284 284 285 284 284 283
213 212 214 214 213 211 211 211 209 207 206 206 207 210 212 208 204 205 204 205 208 207 205 206 207 209 213 216 216 212 208 208 210 213 215 216 215 215 215 216 217 221 222 220 222 225 231 238 232 221 219 219 220 221 220 222 225 224 225 227 228 229 230 234 243 244 246 262 276 277 281 283 273 271 277 284 285 281 279 281 283 284 285 286 285
213 212 213 213 213 212 212 211 210 209 208 208 209 210 213 212 207 207 206 206 209 209 207 207 208 210 214 218 218 213 209 208 210 212 213 214 215 216 215 216 216 217 219 219 219 222 227 233 236 230 222 218 218 219 218 221 228 230 228 228 229 229 231 236 241 241 243 252 257 266 278 273 256 268 281 285 277 268 266 274 280 283 285 285 285
212 212 212 213 213 212 212 212 211 210 210 210 210 211 214 214 209 207 207 207 210 210 209 209 210 212 216 219 220 216 211 211 211 211 211 211 214 216 215 215 217 217 217 217 217 219 223 227 231 233 230 222 219 220 216 215 225 232 233 234 232 227 227 231 236 237 238 246 258 264 262 255 261 274 281 279 269 263 267 275 280 283 285 284 283
212 213 212 212 212 211 212 212 212 211 211 211 210 210 214 214 209 208 208 208 209 210 210 210 211 213 217 220 222 220 215 213 214 213 211 210 211 214 214 213 215 217 218 217 217 217 220 224 226 229 231 229 227 226 215 207 216 227 229 234 237 235 230 227 227 230 235 247 263 267 260 263 274 278 278 274 270 274 282 285 287 289 288 282 279
213 213 213 212 211 210 210 211 211 211 211 211 210 211 213 212 209 209 209 209 210 210 210 210 211 213 217 221 223 222 218 216 219 219 216 212 211 209 209 209 210 215 218 219 219 218 219 222 224 226 228 230 230 227 219 212 218 226 224 226 235 240 238 235 234 238 244 251 259 260 258 265 274 275 273 274 278 282 287 289 291 292 287 277 278
213 212 212 212 212 211 210 210 210 211 211 212 216 217 215 211 207 208 209 210 212 212 210 210 211 213 217 221 224 224 222 222 226 227 223 218 217 213 207 205 208 212 216 220 221 220 221 223 225 225 226 229 227 225 225 223 223 227 224 223 234 240 238 243 247 243 242 245 249 254 261 270 277 277 275 276 282 286 285 283 280 276 272 276 282
212 212 211 212 213 213 212 211 211 212 212 216 220 222 219 215 210 207 208 210 211 213 212 210 210 213 217 221 223 224 224 224 228 232 229 224 223 223 219 214 214 213 214 219 222 223 224 226 228 229 229 231 229 225 228 229 223 223 226 228 236 241 239 250 260 253 243 241 245 257 269 275 276 277 278 280 284 286 282 278 274 270 272 279 283
211 211 211 212 214 214 214 214 214 214 215 219 222 223 221 219 216 211 209 212 212 213 214 212 211 213 216 219 220 220 221 223 225 229 231 229 228 229 229 227 225 223 219 220 223 225 229 231 232 234 235 234 232 227 228 230 224 222 228 231 234 240 245 253 264 264 253 243 248 265 275 278 272 269 275 282 283 282 279 276 275 275 278 285 286
211 212 213 213 214 215 215 216 217 217 218 220 223 224 222 221 220 215 212 214 216 215 215 214 213 214 215 216 217 215 216 221 222 221 224 229 229 230 231 231 231 230 228 228 228 227 231 235 235 236 237 236 234 230 228 229 228 228 233 236 236 241 248 252 258 261 253 243 250 264 274 278 275 271 276 281 279 279 281 279 279 280 286 293 292
213 215 215 215 215 216 217 217 218 220 220 221 223 225 224 222 221 218 214 214 219 220 216 214 214 216 215 213 213 212 209 217 222 217 210 217 224 226 227 227 227 228 230 232 232 230 231 236 238 236 236 236 234 232 228 225 228 234 240 244 244 243 246 254 259 258 252 248 249 257 270 278 279 274 275 277 276 278 283 283 283 286 292 298 298
216 217 217 216 217 217 218 219 221 222 224 223 223 225 225 223 221 218 215 213 217 219 216 214 216 219 219 215 213 210 206 212 223 220 207 204 213 218 219 220 221 223 227 231 231 230 229 232 235 233 233 234 233 230 228 225 227 231 235 247 254 248 248 255 255 252 252 246 236 243 271 281 279 274 272 275 280 283 287 288 287 288 290 294 300
218 219 218 218 218 219 222 224 224 226 228 226 223 223 224 222 219 216 213 212 214 217 216 216 216 219 221 219 216 214 208 210 221 225 215 204 208 213 212 213 216 220 225 228 228 226 224 222 224 228 231 234 231 226 224 222 219 215 220 246 250 241 241 246 245 249 252 229 206 220 269 280 277 276 278 283 286 287 290 290 287 285 285 288 297
217 218 219 220 220 221 223 225 225 226 229 228 224 222 223 221 216 212 210 210 214 216 216 216 215 216 218 217 216 216 214 212 219 226 221 208 205 213 213 212 214 218 223 224 222 222 223 221 218 221 228 231 230 230 232 230 224 214 212 229 234 228 229 235 241 252 258 232 206 219 261 272 272 279 284 287 289 289 290 288 283 283 284 288 295
219 220 221 223 223 223 223 224 224 225 228 230 227 224 222 220 215 210 206 207 212 216 217 216 215 217 218 217 215 214 214 214 216 222 221 210 204 209 212 212 214 217 217 211 204 207 216 220 218 219 224 229 233 237 239 239 234 222 212 219 230 231 229 238 253 261 267 265 245 226 237 264 275 282 287 291 289 288 290 290 288 286 287 292 298
220 221 222 224 225 224 224 226 226 226 229 232 231 226 223 221 216 209 204 205 209 213 215 213 214 218 220 219 217 214 211 211 213 217 217 210 203 204 209 210 212 215 211 198 189 195 204 210 213 217 222 228 231 233 234 237 236 224 212 218 232 236 237 251 264 265 266 267 224 190 210 266 283 286 292 297 295 293 296 297 293 291 292 295 298